Powrót do katalogu

CZ-6A DEB

AktywnyPO
NORAD 61494·DEBRIS·🇨🇳 China

Wystrzelony Aug 6, 2024 z Taiyuan Satellite Launch Center

Loading…

Następne Przeloty (najbliższe 24 godziny)

TLE

ŚwieżeSource: Space-Track

Epoka: Sep 14, 2026, 06:15 UTC

1 61494U 24140ABC 26257.26088364  .00001802  00000-0  97024-3 0  9990
2 61494  88.8566 253.8175 0100162 314.7703  44.5364 14.09903844103410

Śledź CZ-6A DEB w czasie rzeczywistym z AllMySat

Download on the App Store